Weather History for St. James, MN

Change the Weather History Date:

Friday, April 19, 2013

  Actual Average Record
Temperature  
Mean Temperature 32 °F -  
Max Temperature 35 °F 60 °F 92 °F (1985)
Min Temperature 28 °F 39 °F 26 °F (1983)
Degree Days  
Heating Degree Days 34    
Moisture  
Dew Point 24 °F    
Average Humidity 71    
Maximum Humidity 86    
Minimum Humidity 60    
Precipitation  
Precipitation 0.00 in - - ()
Sea Level Pressure  
Sea Level Pressure 29.79 in    
Wind  
Wind Speed 22 mph (WNW)    
Max Wind Speed 28 mph    
Max Gust Speed 37 mph    
Visibility 8 miles    
Events Snow    
Averages and records for this station are not official NWS values.
T = Trace of Precipitation, MM = Missing Value Source: NWS Daily Summary

Daily Weather History Graph

Daily Weather History Graph

Search for Another Location

Airport:

Trip Planner

Search our weather history database for the weather conditions in past years. The results will help you decide how hot, cold, wet, or windy it might be!

Date:

Astronomy

Apr. 19, 2013 Rise Set
Actual Time 6:27 AM CDT 8:07 PM CDT
Civil Twilight 5:57 AM CDT 8:37 PM CDT
Nautical Twilight 5:20 AM CDT 9:15 PM CDT
Astronomical Twilight 4:40 AM CDT 9:54 PM CDT
Moon 1:40 PM CDT 2:56 AM CDT
Length of Visible Light 14h 40m
Length of Day
13h 39m
First Quarter, 62% of the Moon is Illuminated
Apr 19
First Quarter
Apr 25
Full
May 2
Last Quarter
May 9
New
May 17
First Quarter

Hourly Weather History & Observations

Time (CDT) Temp. Windchill Dew Point Humidity Pressure Visibility Wind Dir Wind Speed Gust Speed Precip Events Conditions
12:14 AM 33.8 °F 21.9 °F 28.4 °F 81% 29.63 in 1.8 mi WNW 21.9 mph 31.1 mph N/A Snow Light Snow
12:35 AM 33.8 °F 21.3 °F 28.4 °F 81% 29.63 in 1.8 mi WNW 24.2 mph 33.4 mph N/A Snow Light Snow
12:55 AM 33.8 °F 21.6 °F 28.4 °F 81% 29.62 in 1.8 mi WNW 23.0 mph 32.2 mph N/A Snow Light Snow
1:14 AM 33.8 °F 21.6 °F 28.4 °F 81% 29.62 in 2.0 mi WNW 23.0 mph 31.1 mph N/A Snow Light Snow
1:35 AM 33.8 °F 21.6 °F 28.4 °F 81% 29.62 in 1.8 mi WNW 23.0 mph 29.9 mph N/A Snow Light Snow
1:55 AM 33.8 °F 21.6 °F 28.4 °F 81% 29.62 in 2.5 mi WNW 23.0 mph 32.2 mph N/A Snow Light Snow
2:15 AM 33.8 °F 20.8 °F 28.4 °F 81% 29.61 in 2.5 mi WNW 26.5 mph 33.4 mph N/A Snow Light Snow
2:35 AM 32.0 °F 19.2 °F 26.6 °F 80% 29.61 in 2.5 mi WNW 23.0 mph 32.2 mph N/A Snow Light Snow
2:55 AM 32.0 °F 18.6 °F 26.6 °F 80% 29.61 in 2.5 mi WNW 25.3 mph 32.2 mph N/A Snow Light Snow
3:14 AM 32.0 °F 18.6 °F 26.6 °F 80% 29.61 in 2.5 mi WNW 25.3 mph 33.4 mph N/A Snow Light Snow
3:35 AM 32.0 °F 18.9 °F 26.6 °F 80% 29.61 in 2.5 mi WNW 24.2 mph 32.2 mph N/A Snow Light Snow
3:55 AM 32.0 °F 18.9 °F 26.6 °F 80% 29.62 in 3.0 mi WNW 24.2 mph - N/A Snow Light Snow
4:15 AM 32.0 °F 18.6 °F 26.6 °F 80% 29.62 in 4.0 mi WNW 25.3 mph 31.1 mph N/A Snow Light Snow
4:35 AM 30.2 °F 16.5 °F 26.6 °F 86% 29.63 in 5.0 mi WNW 24.2 mph 29.9 mph N/A Snow Light Snow
4:55 AM 30.2 °F 17.1 °F 24.8 °F 80% 29.63 in 7.0 mi WNW 21.9 mph 29.9 mph N/A Snow Light Snow
5:15 AM 30.2 °F 17.1 °F 24.8 °F 80% 29.63 in 7.0 mi WNW 21.9 mph 31.1 mph N/A   Overcast
5:55 AM 28.4 °F 14.4 °F 23.0 °F 80% 29.64 in 7.0 mi WNW 23.0 mph 27.6 mph N/A Snow Light Snow
6:15 AM 28.4 °F 14.7 °F 23.0 °F 80% 29.65 in 7.0 mi WNW 21.9 mph - N/A Snow Light Snow
6:35 AM 28.4 °F 14.4 °F 21.2 °F 74% 29.66 in 7.0 mi WNW 23.0 mph 27.6 mph N/A   Overcast
6:55 AM 28.4 °F 15.4 °F 21.2 °F 74% 29.66 in 10.0 mi WNW 19.6 mph 27.6 mph N/A   Overcast
7:15 AM 28.4 °F 14.4 °F 21.2 °F 74% 29.67 in 7.0 mi WNW 23.0 mph 28.8 mph N/A   Overcast
7:35 AM 28.4 °F 14.7 °F 21.2 °F 74% 29.68 in 10.0 mi WNW 21.9 mph 29.9 mph N/A   Overcast
7:55 AM 28.4 °F 15.4 °F 21.2 °F 74% 29.68 in 10.0 mi West 19.6 mph 24.2 mph N/A   Overcast
8:15 AM 28.4 °F 15.1 °F 21.2 °F 74% 29.69 in 10.0 mi WNW 20.7 mph 28.8 mph N/A   Overcast
8:35 AM 28.4 °F 14.4 °F 21.2 °F 74% 29.69 in 10.0 mi WNW 23.0 mph 28.8 mph N/A   Overcast
8:55 AM 30.2 °F 17.1 °F 21.2 °F 69% 29.69 in 10.0 mi WNW 21.9 mph 27.6 mph N/A   Overcast
9:15 AM 30.2 °F 17.1 °F 21.2 °F 69% 29.70 in 10.0 mi WNW 21.9 mph 28.8 mph N/A   Overcast
9:55 AM 30.2 °F 16.8 °F 21.2 °F 69% 29.72 in 10.0 mi WNW 23.0 mph 28.8 mph N/A   Overcast
10:15 AM 32.0 °F 19.8 °F 21.2 °F 64% 29.73 in 10.0 mi WNW 20.7 mph 27.6 mph N/A   Overcast
10:35 AM 32.0 °F 20.1 °F 23.0 °F 69% 29.73 in 10.0 mi WNW 19.6 mph 28.8 mph N/A   Mostly Cloudy
10:55 AM 33.8 °F 21.9 °F 23.0 °F 65% 29.74 in 10.0 mi WNW 21.9 mph - N/A   Scattered Clouds
11:15 AM 33.8 °F 21.9 °F 23.0 °F 65% 29.75 in 10.0 mi WNW 21.9 mph 26.5 mph N/A   Scattered Clouds
11:35 AM 33.8 °F 22.5 °F 24.8 °F 70% 29.76 in 10.0 mi WNW 19.6 mph 27.6 mph N/A   Scattered Clouds
11:55 AM 33.8 °F 21.3 °F 24.8 °F 70% 29.77 in 10.0 mi WNW 24.2 mph 31.1 mph N/A   Scattered Clouds
12:14 PM 35.6 °F 24.0 °F 24.8 °F 65% 29.78 in 10.0 mi WNW 23.0 mph 29.9 mph N/A   Scattered Clouds
12:35 PM 35.6 °F 23.7 °F 24.8 °F 65% 29.78 in 10.0 mi WNW 24.2 mph 29.9 mph N/A   Mostly Cloudy
12:55 PM 35.6 °F 23.4 °F 24.8 °F 65% 29.79 in 10.0 mi WNW 25.3 mph 34.5 mph N/A   Mostly Cloudy
1:15 PM 35.6 °F 23.0 °F 24.8 °F 65% 29.79 in 10.0 mi WNW 27.6 mph 31.1 mph N/A   Scattered Clouds
1:35 PM 35.6 °F 23.4 °F 24.8 °F 65% 29.80 in 10.0 mi WNW 25.3 mph 29.9 mph N/A   Mostly Cloudy
1:55 PM 35.6 °F 23.4 °F 24.8 °F 65% 29.81 in 10.0 mi WNW 25.3 mph 33.4 mph N/A   Scattered Clouds
2:15 PM 35.6 °F 23.0 °F 24.8 °F 65% 29.82 in 10.0 mi WNW 27.6 mph 32.2 mph N/A   Scattered Clouds
2:35 PM 35.6 °F 24.2 °F 24.8 °F 65% 29.83 in 10.0 mi WNW 21.9 mph 29.9 mph N/A   Scattered Clouds
2:55 PM 35.6 °F 23.4 °F 24.8 °F 65% 29.84 in 10.0 mi WNW 25.3 mph 32.2 mph N/A   Scattered Clouds
3:15 PM 35.6 °F 24.0 °F 24.8 °F 65% 29.84 in 10.0 mi WNW 23.0 mph 33.4 mph N/A   Scattered Clouds
3:34 PM 35.6 °F 23.0 °F 24.8 °F 65% 29.85 in 10.0 mi WNW 27.6 mph 35.7 mph N/A   Scattered Clouds
3:55 PM 35.6 °F 23.4 °F 24.8 °F 65% 29.86 in 10.0 mi WNW 25.3 mph 31.1 mph N/A   Scattered Clouds
4:15 PM 35.6 °F 24.5 °F 24.8 °F 65% 29.87 in 10.0 mi WNW 20.7 mph 36.8 mph N/A   Clear
4:35 PM 35.6 °F 23.2 °F 24.8 °F 65% 29.88 in 10.0 mi WNW 26.5 mph 32.2 mph N/A   Scattered Clouds
4:55 PM 35.6 °F 23.7 °F 23.0 °F 60% 29.88 in 10.0 mi WNW 24.2 mph 32.2 mph N/A   Scattered Clouds
5:15 PM 35.6 °F 23.2 °F 23.0 °F 60% 29.89 in 10.0 mi WNW 26.5 mph 32.2 mph N/A   Clear
5:34 PM 35.6 °F 24.8 °F 24.8 °F 65% 29.91 in 10.0 mi WNW 19.6 mph 28.8 mph N/A   Scattered Clouds
5:55 PM 35.6 °F 25.2 °F 24.8 °F 65% 29.92 in 10.0 mi WNW 18.4 mph 25.3 mph N/A   Scattered Clouds
6:15 PM 35.6 °F 24.2 °F 24.8 °F 65% 29.92 in 10.0 mi WNW 21.9 mph 31.1 mph N/A   Scattered Clouds
6:34 PM 35.6 °F 24.5 °F 24.8 °F 65% 29.93 in 10.0 mi WNW 20.7 mph 26.5 mph N/A   Clear
6:55 PM 35.6 °F 24.8 °F 24.8 °F 65% 29.94 in 10.0 mi WNW 19.6 mph 25.3 mph N/A   Clear
7:15 PM 35.6 °F 24.0 °F 23.0 °F 60% 29.95 in 10.0 mi WNW 23.0 mph 27.6 mph N/A   Clear
7:35 PM 33.8 °F 23.2 °F 23.0 °F 65% 29.96 in 10.0 mi WNW 17.3 mph 23.0 mph N/A   Clear
7:55 PM 33.8 °F 23.9 °F 24.8 °F 70% 29.96 in 10.0 mi WNW 15.0 mph 21.9 mph N/A   Clear
8:15 PM 33.8 °F 23.9 °F 24.8 °F 70% 29.97 in 10.0 mi WNW 15.0 mph 20.7 mph N/A   Clear
8:35 PM 33.8 °F 23.9 °F 24.8 °F 70% 29.98 in 10.0 mi West 15.0 mph 19.6 mph N/A   Clear
8:55 PM 33.8 °F 23.5 °F 23.0 °F 65% 29.99 in 10.0 mi WNW 16.1 mph 20.7 mph N/A   Clear
9:15 PM 32.0 °F 22.1 °F 23.0 °F 69% 30.00 in 10.0 mi West 13.8 mph - N/A   Clear
9:35 PM 32.0 °F 21.2 °F 23.0 °F 69% 30.01 in 10.0 mi West 16.1 mph - N/A   Clear
9:54 PM 32.0 °F 21.6 °F 21.2 °F 64% 30.02 in 10.0 mi West 15.0 mph - N/A   Clear
10:15 PM 30.2 °F 20.8 °F 21.2 °F 69% 30.03 in 10.0 mi West 11.5 mph - N/A   Clear
10:35 PM 30.2 °F 19.8 °F 21.2 °F 69% 30.03 in 10.0 mi West 13.8 mph - N/A   Clear
10:55 PM 30.2 °F 19.3 °F 21.2 °F 69% 30.03 in 10.0 mi West 15.0 mph - N/A   Clear
11:15 PM 30.2 °F 19.8 °F 21.2 °F 69% 30.04 in 10.0 mi West 13.8 mph - N/A   Clear
11:35 PM 30.2 °F 20.2 °F 21.2 °F 69% 30.04 in 10.0 mi West 12.7 mph - N/A   Clear